Hill City, KS

11:42 PM CDT on September 24, 2016 (GMT -0500)
Hill City Municipal

Weather History for KHLC - April, 2014

Change the Weather History Date:

Wednesday, April 9, 2014

  Actual Average Record
Temperature  
Mean Temperature 67 °F 49 °F  
Max Temperature 89 °F 63 °F 93 °F (2011)
Min Temperature 44 °F 35 °F 18 °F (1937)
Cooling Degree Days 2    
Growing Degree Days 16 (Base 50)    
Moisture  
Dew Point 27 °F    
Average Humidity 29    
Maximum Humidity 54    
Minimum Humidity 8    
Precipitation  
Precipitation 0.00 in 0.07 in 0.13 in (2004)
Month to date precipitation 0.27 0.50  
Year to date precipitation 0.92 3.10  
Sea Level Pressure  
Sea Level Pressure 29.84 in    
Wind  
Wind Speed 11 mph (SW)    
Max Wind Speed 22 mph    
Max Gust Speed 31 mph    
Visibility 10 miles    
Events      
T = Trace of Precipitation, MM = Missing Value Source: NWS Daily Summary

Daily Weather History Graph

Daily Weather History Graph

Search for Another Location

Airport or City:

Trip Planner

Search our weather history database for the weather conditions in past years. The results will help you decide how hot, cold, wet, or windy it might be!

Date:

Astronomy

Apr. 09, 2014 Rise Set
Actual Time 7:11 AM CDT 8:11 PM CDT
Civil Twilight 6:43 AM CDT 8:38 PM CDT
Nautical Twilight 6:11 AM CDT 9:11 PM CDT
Astronomical Twilight 5:37 AM CDT 9:45 PM CDT
Moon 3:02 PM CDT (4/9) 3:59 AM CDT (4/9)
Length of Visible Light 13h 54m
Length of Day
12h 59m
Waxing Gibbous, 72% of the Moon is Illuminated
Apr 9
Waxing Gibbous
Apr 15
Full
Apr 22
Last Quarter
Apr 29
New
May 6
First Quarter

Hourly Weather History & Observations

Time (CDT) Temp. Windchill Dew Point Humidity Pressure Visibility Wind Dir Wind Speed Gust Speed Precip Events Conditions
12:53 AM 48.0 °F - 25.0 °F 41% 30.06 in 10.0 mi South 10.4 mph - N/A   Clear
1:53 AM 46.9 °F - 25.0 °F 42% 30.06 in 10.0 mi South 6.9 mph - N/A   Clear
2:53 AM 46.0 °F 42.5 °F 26.1 °F 46% 30.04 in 10.0 mi SSW 6.9 mph - N/A   Clear
3:53 AM 46.0 °F 41.0 °F 26.1 °F 46% 30.02 in 10.0 mi SW 10.4 mph - N/A   Clear
4:53 AM 46.0 °F 41.0 °F 27.0 °F 47% 30.00 in 10.0 mi SW 10.4 mph - N/A   Clear
5:53 AM 46.0 °F 40.6 °F 28.0 °F 50% 29.96 in 10.0 mi SW 11.5 mph - N/A   Clear
6:53 AM 45.0 °F 39.7 °F 28.9 °F 53% 29.95 in 10.0 mi SW 10.4 mph - N/A   Clear
7:53 AM 46.9 °F - 30.9 °F 54% 29.95 in 10.0 mi SW 12.7 mph - N/A   Clear
8:53 AM 51.1 °F - 33.1 °F 50% 29.95 in 10.0 mi WSW 10.4 mph - N/A   Clear
9:53 AM 61.0 °F - 33.1 °F 35% 29.92 in 10.0 mi WSW 10.4 mph - N/A   Clear
10:53 AM 71.1 °F - 34.0 °F 26% 29.89 in 10.0 mi West 11.5 mph - N/A   Clear
11:53 AM 80.1 °F - 28.0 °F 15% 29.86 in 10.0 mi West 17.3 mph 25.3 mph N/A   Clear
12:53 PM 82.9 °F - 27.0 °F 13% 29.83 in 10.0 mi West 19.6 mph 26.5 mph N/A   Clear
1:53 PM 86.0 °F - 21.9 °F 10% 29.79 in 10.0 mi NW 21.9 mph 29.9 mph N/A   Clear
2:53 PM 88.0 °F - 19.9 °F 8% 29.76 in 10.0 mi West 19.6 mph 31.1 mph N/A   Clear
3:53 PM 88.0 °F - 19.9 °F 8% 29.73 in 10.0 mi WSW 17.3 mph 31.1 mph N/A   Clear
4:53 PM 88.0 °F - 23.0 °F 9% 29.70 in 10.0 mi SW 13.8 mph 28.8 mph N/A   Clear
5:53 PM 87.1 °F - 19.0 °F 8% 29.68 in 10.0 mi WSW 19.6 mph 27.6 mph N/A   Clear
6:53 PM 84.0 °F - 23.0 °F 11% 29.68 in 10.0 mi SW 12.7 mph - N/A   Clear
7:53 PM 77.0 °F - 24.1 °F 14% 29.68 in 10.0 mi SW 9.2 mph - N/A   Clear
8:53 PM 70.0 °F - 27.0 °F 20% 29.69 in 10.0 mi WSW 6.9 mph - N/A   Clear
9:53 PM 64.0 °F - 28.9 °F 27% 29.69 in 10.0 mi West 4.6 mph - N/A   Clear
10:53 PM 64.0 °F - 30.0 °F 28% 29.67 in 10.0 mi SW 11.5 mph - N/A   Clear
11:53 PM 64.0 °F - 30.0 °F 28% 29.65 in 10.0 mi WSW 9.2 mph - N/A   Clear